ALX417 KPVD-KORF

Flight info

Callsign ALX417
Flight time 1h 4m
Altitude 36000
Route JUMPR RIFLE Q167 ZJAAY CCV
Aircraft B738/M-SDE2E3FGHIRWXY/LB1

Departure

Time 2026-04-24 07:28
Airport Rhode Island T. F. Green International Airport (KPVD)

Arrival

Time 2026-04-24 08:32
Airport Norfolk International Airport (KORF)
Time Latitude Longitude Altitude Speed Heading
2026-04-24 07:03 41.72690 -71.43359 65 ft 0 kts 278°
2026-04-24 07:18 41.72690 -71.43338 58 ft 4 kts 267°
2026-04-24 07:18 41.72689 -71.43303 60 ft 4 kts 268°
2026-04-24 07:18 41.72692 -71.43267 57 ft 4 kts 252°
2026-04-24 07:18 41.72704 -71.43237 56 ft 4 kts 218°
2026-04-24 07:19 41.72708 -71.43233 56 ft 1 kts 212°
2026-04-24 07:21 41.72680 -71.43256 65 ft 10 kts 211°
2026-04-24 07:22 41.72606 -71.43313 63 ft 12 kts 195°
2026-04-24 07:22 41.72547 -71.43264 64 ft 11 kts 106°
2026-04-24 07:22 41.72549 -71.43110 58 ft 18 kts 85°
2026-04-24 07:22 41.72556 -71.42931 54 ft 19 kts 95°
2026-04-24 07:23 41.72491 -71.42781 53 ft 19 kts 150°
2026-04-24 07:23 41.72375 -71.42834 53 ft 19 kts 213°
2026-04-24 07:23 41.72249 -71.42941 58 ft 24 kts 212°
2026-04-24 07:23 41.72154 -71.43023 51 ft 26 kts 213°
2026-04-24 07:24 41.72005 -71.43149 55 ft 24 kts 212°
2026-04-24 07:24 41.71866 -71.43264 51 ft 23 kts 212°
2026-04-24 07:24 41.71733 -71.43376 55 ft 22 kts 212°
2026-04-24 07:24 41.71604 -71.43486 57 ft 22 kts 212°
2026-04-24 07:25 41.71478 -71.43591 57 ft 21 kts 212°
2026-04-24 07:25 41.71357 -71.43694 57 ft 20 kts 212°
2026-04-24 07:25 41.71235 -71.43794 55 ft 21 kts 212°
2026-04-24 07:25 41.71127 -71.43886 58 ft 14 kts 213°
2026-04-24 07:26 41.71082 -71.43877 56 ft 0 kts 129°
2026-04-24 07:26 41.71079 -71.43871 58 ft 4 kts 127°
2026-04-24 07:27 41.71059 -71.43790 58 ft 10 kts 72°
2026-04-24 07:27 41.71119 -71.43721 55 ft 15 kts 31°
2026-04-24 07:27 41.71409 -71.43478 58 ft 91 kts 32°
2026-04-24 07:27 41.72183 -71.42836 65 ft 168 kts 31°
2026-04-24 07:28 41.73113 -71.41794 1027 ft 168 kts 43°
2026-04-24 07:28 41.73779 -71.40457 2042 ft 183 kts 55°
2026-04-24 07:28 41.74634 -71.39110 2521 ft 201 kts 32°
2026-04-24 07:28 41.75818 -71.37909 2797 ft 225 kts 33°
2026-04-24 07:29 41.77008 -71.36459 3305 ft 240 kts 49°
2026-04-24 07:29 41.77600 -71.34330 4020 ft 254 kts 81°
2026-04-24 07:29 41.77345 -71.31924 4521 ft 275 kts 110°
2026-04-24 07:29 41.76212 -71.29774 5048 ft 292 kts 140°
2026-04-24 07:30 41.74451 -71.28496 5864 ft 294 kts 167°
2026-04-24 07:30 41.72404 -71.27966 6693 ft 299 kts 175°
2026-04-24 07:30 41.70344 -71.27550 7458 ft 307 kts 176°
2026-04-24 07:30 41.68205 -71.27120 8223 ft 314 kts 176°
2026-04-24 07:31 41.66031 -71.26662 9033 ft 319 kts 176°
2026-04-24 07:31 41.63816 -71.26164 9843 ft 326 kts 176°
2026-04-24 07:31 41.61540 -71.25627 10424 ft 340 kts 176°
2026-04-24 07:31 41.59116 -71.25062 10621 ft 366 kts 176°
2026-04-24 07:32 41.56521 -71.24473 10808 ft 390 kts 176°
2026-04-24 07:32 41.53765 -71.23861 11118 ft 408 kts 176°
2026-04-24 07:32 41.50973 -71.23247 11730 ft 416 kts 176°
2026-04-24 07:32 41.48096 -71.22612 12441 ft 421 kts 176°
2026-04-24 07:33 41.45192 -71.21965 13081 ft 426 kts 176°
2026-04-24 07:33 41.42255 -71.21302 13812 ft 430 kts 176°
2026-04-24 07:33 41.39289 -71.20623 14444 ft 434 kts 176°
2026-04-24 07:33 41.36291 -71.19930 15068 ft 439 kts 176°
2026-04-24 07:34 41.33269 -71.19223 15685 ft 443 kts 176°
2026-04-24 07:34 41.30219 -71.18502 16309 ft 448 kts 176°
2026-04-24 07:34 41.27136 -71.17767 16927 ft 452 kts 176°
2026-04-24 07:34 41.24024 -71.17019 17532 ft 456 kts 176°
2026-04-24 07:35 41.20892 -71.16659 18091 ft 447 kts 192°
2026-04-24 07:35 41.17907 -71.17461 18618 ft 429 kts 211°
2026-04-24 07:35 41.15307 -71.19218 19177 ft 416 kts 222°
2026-04-24 07:35 41.12931 -71.21306 19673 ft 411 kts 230°
2026-04-24 07:36 41.11058 -71.24068 20114 ft 388 kts 250°
2026-04-24 07:36 41.10102 -71.27253 20671 ft 370 kts 265°
2026-04-24 07:36 41.09386 -71.30559 21204 ft 378 kts 261°
2026-04-24 07:36 41.08440 -71.33842 21673 ft 385 kts 258°
2026-04-24 07:37 41.07405 -71.37136 22120 ft 389 kts 257°
2026-04-24 07:37 41.06340 -71.40452 22573 ft 393 kts 257°
2026-04-24 07:37 41.05265 -71.43801 23061 ft 396 kts 257°
2026-04-24 07:37 41.04190 -71.47183 23532 ft 398 kts 257°
2026-04-24 07:38 41.03120 -71.50574 23917 ft 401 kts 258°
2026-04-24 07:38 41.02048 -71.53994 24277 ft 403 kts 258°
2026-04-24 07:38 41.00973 -71.57435 24580 ft 407 kts 258°
2026-04-24 07:38 40.99888 -71.60920 24861 ft 412 kts 258°
2026-04-24 07:39 40.98790 -71.64439 25200 ft 414 kts 258°
2026-04-24 07:39 40.97686 -71.67971 25564 ft 416 kts 258°
2026-04-24 07:39 40.96588 -71.71480 25917 ft 419 kts 258°
2026-04-24 07:39 40.95469 -71.75050 26226 ft 422 kts 258°
2026-04-24 07:40 40.94341 -71.78648 26514 ft 425 kts 258°
2026-04-24 07:40 40.93204 -71.82270 26805 ft 428 kts 258°
2026-04-24 07:40 40.92058 -71.85915 27102 ft 431 kts 258°
2026-04-24 07:40 40.90903 -71.89582 27409 ft 433 kts 258°
2026-04-24 07:41 40.89740 -71.93265 27662 ft 436 kts 258°
2026-04-24 07:41 40.88566 -71.96985 27886 ft 440 kts 258°
2026-04-24 07:41 40.87386 -72.00721 28160 ft 442 kts 258°
2026-04-24 07:41 40.86195 -72.04476 28478 ft 443 kts 258°
2026-04-24 07:42 40.85002 -72.08231 28888 ft 443 kts 258°
2026-04-24 07:42 40.83812 -72.11969 29335 ft 441 kts 258°
2026-04-24 07:42 40.82618 -72.15716 29745 ft 441 kts 259°
2026-04-24 07:42 40.81431 -72.19442 30089 ft 441 kts 259°
2026-04-24 07:43 40.80242 -72.23174 30361 ft 441 kts 259°
2026-04-24 07:43 40.79050 -72.26913 30601 ft 442 kts 258°
2026-04-24 07:43 40.77866 -72.30624 30792 ft 445 kts 258°
2026-04-24 07:43 40.76659 -72.34397 31073 ft 446 kts 258°
2026-04-24 07:44 40.75449 -72.38165 31454 ft 444 kts 259°
2026-04-24 07:44 40.74246 -72.41905 31815 ft 443 kts 259°
2026-04-24 07:44 40.73045 -72.45646 32104 ft 443 kts 259°
2026-04-24 07:44 40.71841 -72.49391 32376 ft 444 kts 259°
2026-04-24 07:45 40.70635 -72.53128 32688 ft 444 kts 258°
2026-04-24 07:45 40.69160 -72.56778 32995 ft 460 kts 249°
2026-04-24 07:45 40.67211 -72.60204 33300 ft 474 kts 240°
2026-04-24 07:45 40.64822 -72.63301 33478 ft 487 kts 232°
2026-04-24 07:46 40.62253 -72.66235 33739 ft 490 kts 231°
2026-04-24 07:46 40.59651 -72.69131 34021 ft 490 kts 231°
2026-04-24 07:46 40.57047 -72.72027 34291 ft 489 kts 231°
2026-04-24 07:46 40.54495 -72.74888 34585 ft 487 kts 231°
2026-04-24 07:47 40.51935 -72.77786 34897 ft 484 kts 232°
2026-04-24 07:47 40.49395 -72.80681 35198 ft 482 kts 232°
2026-04-24 07:47 40.46873 -72.83566 35492 ft 480 kts 231°
2026-04-24 07:47 40.44363 -72.86438 35823 ft 477 kts 231°
2026-04-24 07:48 40.41859 -72.89303 36032 ft 477 kts 231°
2026-04-24 07:48 40.39346 -72.92178 36003 ft 481 kts 231°
2026-04-24 07:48 40.34308 -72.97916 36003 ft 478 kts 231°
2026-04-24 07:49 40.29286 -73.03622 35987 ft 477 kts 231°
2026-04-24 07:49 40.24288 -73.09289 36018 ft 476 kts 230°
2026-04-24 07:50 40.19276 -73.14953 36026 ft 475 kts 230°
2026-04-24 07:50 40.14266 -73.20605 36028 ft 476 kts 230°
2026-04-24 07:51 40.09249 -73.26255 36023 ft 476 kts 230°
2026-04-24 07:51 40.04233 -73.31882 36010 ft 476 kts 230°
2026-04-24 07:52 39.99237 -73.37475 36028 ft 476 kts 230°
2026-04-24 07:52 39.94194 -73.43113 36039 ft 477 kts 230°
2026-04-24 07:53 39.89151 -73.48741 36027 ft 478 kts 230°
2026-04-24 07:53 39.84093 -73.54373 36038 ft 478 kts 230°
2026-04-24 07:54 39.79024 -73.60003 36040 ft 479 kts 229°
2026-04-24 07:54 39.73954 -73.65625 35969 ft 479 kts 229°
2026-04-24 07:55 39.68895 -73.71224 36030 ft 477 kts 229°
2026-04-24 07:55 39.63833 -73.76818 36034 ft 477 kts 229°
2026-04-24 07:56 39.58788 -73.82382 36037 ft 476 kts 229°
2026-04-24 07:56 39.53737 -73.87942 36037 ft 476 kts 229°
2026-04-24 07:57 39.48691 -73.93486 36041 ft 475 kts 229°
2026-04-24 07:57 39.43650 -73.99015 36043 ft 475 kts 229°
2026-04-24 07:58 39.38636 -74.04503 36040 ft 474 kts 229°
2026-04-24 07:58 39.33600 -74.10012 36049 ft 473 kts 229°
2026-04-24 07:59 39.28574 -74.15505 36047 ft 473 kts 229°
2026-04-24 07:59 39.23552 -74.20984 36047 ft 473 kts 229°
2026-04-24 08:00 39.18520 -74.26461 36048 ft 473 kts 228°
2026-04-24 08:00 39.13486 -74.31930 36047 ft 472 kts 228°
2026-04-24 08:01 39.08463 -74.37377 36027 ft 472 kts 228°
2026-04-24 08:01 39.03435 -74.42819 36045 ft 471 kts 228°
2026-04-24 08:02 38.98448 -74.48209 36036 ft 471 kts 228°
2026-04-24 08:02 38.93430 -74.53624 36053 ft 470 kts 229°
2026-04-24 08:03 38.88589 -74.59235 36056 ft 467 kts 231°
2026-04-24 08:03 38.83817 -74.64914 36054 ft 468 kts 230°
2026-04-24 08:04 38.79009 -74.70549 36039 ft 469 kts 230°
2026-04-24 08:04 38.74163 -74.76147 36045 ft 470 kts 228°
2026-04-24 08:05 38.71634 -74.78864 35610 ft 479 kts 226°
2026-04-24 08:05 38.69047 -74.81535 35038 ft 478 kts 226°
2026-04-24 08:05 38.66443 -74.84190 34390 ft 478 kts 226°
2026-04-24 08:05 38.63848 -74.86847 33685 ft 478 kts 226°
2026-04-24 08:06 38.61264 -74.89514 32935 ft 478 kts 226°
2026-04-24 08:06 38.58678 -74.92198 32192 ft 477 kts 226°
2026-04-24 08:06 38.56135 -74.94843 31491 ft 477 kts 226°
2026-04-24 08:06 38.53565 -74.97512 30747 ft 477 kts 225°
2026-04-24 08:07 38.51024 -75.00212 30341 ft 468 kts 227°
2026-04-24 08:07 38.48597 -75.02924 29570 ft 466 kts 228°
2026-04-24 08:07 38.46160 -75.05663 28801 ft 466 kts 226°
2026-04-24 08:07 38.43640 -75.08223 28296 ft 461 kts 223°
2026-04-24 08:08 38.41081 -75.10647 27736 ft 457 kts 222°
2026-04-24 08:08 38.38510 -75.13022 27151 ft 453 kts 221°
2026-04-24 08:08 38.35975 -75.15364 26588 ft 449 kts 221°
2026-04-24 08:09 38.30990 -75.20028 25489 ft 441 kts 221°
2026-04-24 08:09 38.28530 -75.22352 24949 ft 438 kts 222°
2026-04-24 08:09 38.26097 -75.24658 24405 ft 435 kts 221°
2026-04-24 08:09 38.24492 -75.26179 24029 ft 434 kts 221°
2026-04-24 08:10 38.22074 -75.28470 23436 ft 432 kts 221°
2026-04-24 08:10 38.19669 -75.30747 22816 ft 429 kts 221°
2026-04-24 08:10 38.17284 -75.33000 22236 ft 425 kts 221°
2026-04-24 08:10 38.14919 -75.35233 21677 ft 421 kts 221°
2026-04-24 08:11 38.12575 -75.37445 21130 ft 418 kts 221°
2026-04-24 08:11 38.10254 -75.39633 20594 ft 414 kts 221°
2026-04-24 08:11 38.07952 -75.41801 20066 ft 411 kts 221°
2026-04-24 08:11 38.05661 -75.43954 19519 ft 408 kts 220°
2026-04-24 08:12 38.03333 -75.45978 19206 ft 402 kts 217°
2026-04-24 08:12 38.00978 -75.47873 18726 ft 400 kts 215°
2026-04-24 08:12 37.98618 -75.49717 18232 ft 398 kts 215°
2026-04-24 08:12 37.96265 -75.51546 17689 ft 395 kts 215°
2026-04-24 08:13 37.93933 -75.53363 17153 ft 392 kts 215°
2026-04-24 08:13 37.91623 -75.55174 16610 ft 389 kts 215°
2026-04-24 08:13 37.89337 -75.56974 16071 ft 386 kts 216°
2026-04-24 08:13 37.87065 -75.58767 15574 ft 383 kts 216°
2026-04-24 08:14 37.84815 -75.60544 15058 ft 380 kts 216°
2026-04-24 08:14 37.82582 -75.62309 14556 ft 377 kts 216°
2026-04-24 08:14 37.80370 -75.64058 14060 ft 374 kts 216°
2026-04-24 08:14 37.78171 -75.65794 13534 ft 371 kts 216°
2026-04-24 08:15 37.75988 -75.67516 12987 ft 368 kts 216°
2026-04-24 08:15 37.73831 -75.69217 12479 ft 362 kts 216°
2026-04-24 08:15 37.71760 -75.70845 12014 ft 348 kts 216°
2026-04-24 08:15 37.69735 -75.72436 11532 ft 337 kts 216°
2026-04-24 08:16 37.67773 -75.73978 11091 ft 327 kts 216°
2026-04-24 08:16 37.65884 -75.75462 10903 ft 310 kts 216°
2026-04-24 08:16 37.64100 -75.76862 10755 ft 294 kts 217°
2026-04-24 08:16 37.62409 -75.78186 10626 ft 278 kts 217°
2026-04-24 08:17 37.60813 -75.79438 10499 ft 264 kts 217°
2026-04-24 08:17 37.59291 -75.80632 10398 ft 250 kts 218°
2026-04-24 08:17 37.57857 -75.81757 10295 ft 237 kts 218°
2026-04-24 08:17 37.56472 -75.82846 10205 ft 231 kts 218°
2026-04-24 08:18 37.55110 -75.83917 10133 ft 231 kts 218°
2026-04-24 08:18 37.53755 -75.84984 10048 ft 233 kts 218°
2026-04-24 08:18 37.52368 -75.86077 9839 ft 239 kts 218°
2026-04-24 08:18 37.50951 -75.87189 9604 ft 240 kts 218°
2026-04-24 08:19 37.49540 -75.88293 9350 ft 236 kts 218°
2026-04-24 08:19 37.48158 -75.89374 9118 ft 233 kts 218°
2026-04-24 08:19 37.46782 -75.90448 8900 ft 231 kts 218°
2026-04-24 08:19 37.45424 -75.91510 8658 ft 230 kts 217°
2026-04-24 08:20 37.44064 -75.92572 8428 ft 229 kts 217°
2026-04-24 08:20 37.42717 -75.93625 8205 ft 227 kts 217°
2026-04-24 08:20 37.41379 -75.94670 7973 ft 225 kts 217°
2026-04-24 08:20 37.40050 -75.95706 7750 ft 224 kts 217°
2026-04-24 08:21 37.38727 -75.96736 7532 ft 224 kts 217°
2026-04-24 08:21 37.37408 -75.97765 7298 ft 222 kts 217°
2026-04-24 08:21 37.36097 -75.98784 7073 ft 221 kts 217°
2026-04-24 08:21 37.34748 -75.99709 6862 ft 225 kts 201°
2026-04-24 08:22 37.33211 -76.00046 6718 ft 223 kts 191°
2026-04-24 08:22 37.31666 -76.00277 6496 ft 224 kts 191°
2026-04-24 08:22 37.30119 -76.00512 6254 ft 224 kts 191°
2026-04-24 08:22 37.28596 -76.00743 6024 ft 223 kts 191°
2026-04-24 08:23 37.27058 -76.00976 5806 ft 223 kts 191°
2026-04-24 08:23 37.25515 -76.01211 5576 ft 223 kts 191°
2026-04-24 08:23 37.23975 -76.01443 5367 ft 222 kts 191°
2026-04-24 08:23 37.22437 -76.01678 5125 ft 223 kts 191°
2026-04-24 08:24 37.20899 -76.01917 4907 ft 220 kts 194°
2026-04-24 08:24 37.19538 -76.02646 4659 ft 210 kts 223°
2026-04-24 08:24 37.18452 -76.03827 4494 ft 205 kts 224°
2026-04-24 08:24 37.17373 -76.04959 4342 ft 201 kts 217°
2026-04-24 08:25 37.16049 -76.05461 4206 ft 209 kts 180°
2026-04-24 08:25 37.14640 -76.04869 4013 ft 223 kts 146°
2026-04-24 08:25 37.13444 -76.03587 3824 ft 228 kts 140°
2026-04-24 08:25 37.12300 -76.02246 3708 ft 223 kts 139°
2026-04-24 08:26 37.11145 -76.00991 3629 ft 214 kts 154°
2026-04-24 08:26 37.09768 -76.00678 3581 ft 199 kts 199°
2026-04-24 08:26 37.08635 -76.01511 3550 ft 185 kts 222°
2026-04-24 08:26 37.07606 -76.02481 3490 ft 185 kts 219°
2026-04-24 08:27 37.06579 -76.03429 3415 ft 183 kts 220°
2026-04-24 08:27 37.05569 -76.04390 3337 ft 181 kts 220°
2026-04-24 08:27 37.04572 -76.05350 3233 ft 180 kts 220°
2026-04-24 08:27 37.03615 -76.06274 3186 ft 173 kts 220°
2026-04-24 08:28 37.02635 -76.07225 2965 ft 178 kts 220°
2026-04-24 08:28 37.01670 -76.08158 2741 ft 173 kts 220°
2026-04-24 08:28 37.00742 -76.09057 2540 ft 163 kts 221°
2026-04-24 08:28 36.99859 -76.09911 2315 ft 159 kts 221°
2026-04-24 08:29 36.98980 -76.10764 2110 ft 162 kts 221°
2026-04-24 08:29 36.98094 -76.11623 1893 ft 164 kts 220°
2026-04-24 08:29 36.97203 -76.12485 1680 ft 158 kts 220°
2026-04-24 08:29 36.96345 -76.13316 1457 ft 154 kts 221°
2026-04-24 08:30 36.95504 -76.14132 1266 ft 153 kts 220°
2026-04-24 08:30 36.94664 -76.14946 1061 ft 153 kts 219°
2026-04-24 08:30 36.93823 -76.15761 858 ft 153 kts 219°
2026-04-24 08:30 36.92979 -76.16579 666 ft 155 kts 219°
2026-04-24 08:31 36.92120 -76.17405 501 ft 156 kts 218°
2026-04-24 08:31 36.91265 -76.18221 328 ft 153 kts 218°
2026-04-24 08:31 36.90432 -76.19049 32 ft 155 kts 217°
2026-04-24 08:31 36.89647 -76.19809 5 ft 124 kts 218°
2026-04-24 08:32 36.89153 -76.20286 8 ft 59 kts 217°
2026-04-24 08:32 36.88962 -76.20501 5 ft 20 kts 253°
2026-04-24 08:32 36.88991 -76.20578 3 ft 11 kts 344°
2026-04-24 08:32 36.89057 -76.20561 3 ft 0 kts 28°
2026-04-24 08:34 36.89068 -76.20553 4 ft 6 kts 32°
2026-04-24 08:34 36.89137 -76.20500 3 ft 15 kts 31°
2026-04-24 08:34 36.89224 -76.20429 6 ft 16 kts 35°
2026-04-24 08:35 36.89332 -76.20326 3 ft 22 kts 39°
2026-04-24 08:35 36.89455 -76.20208 3 ft 22 kts 37°
2026-04-24 08:35 36.89574 -76.20092 3 ft 21 kts 38°
2026-04-24 08:35 36.89678 -76.19992 3 ft 18 kts 37°
2026-04-24 08:36 36.89776 -76.19909 2 ft 15 kts
2026-04-24 08:36 36.89831 -76.19961 2 ft 10 kts 309°
2026-04-24 08:36 36.89855 -76.19998 3 ft 0 kts 308°
2026-04-24 08:38 36.89714 -76.20185 2 ft 0 kts 216°